COSMOS 2425 (716) (29670 NORAD) Tracking and Keplerian Element Data

This shows tracking and keplerian element data for the satellite.

Feedback or suggestion? Click here.




ElementValue
Catalog29670
NameCOSMOS 2425 (716)
Epoch Orbit8996
Epoch Day198.67895747
Epoch Year2018
RAAN291.5067
Inclination65.2638
Eccentricity0.0019943
Argument of Perigee345.6327
Mean Anonmoly78.8879
Mean Motion2.13105042
Decay Rate-3.7E-07
L11 29670U 06062A 18198.67895747 -.00000037 00000-0 10000-3 0 9993
L22 29670 65.2638 291.5067 0019943 345.6327 78.8879 2.13105042 89969

Live tracking and technical data element details for COSMOS 2425 (716) (NORAD 29670). COSMOS 2425 (716) can be tracked NOW for your location showing map with azimuth and elevation plus other details from your city location.

Track the satellite on the map from your city or location and see movement details for azimuth, elevation, latitude, longitude, range, height, and movement on the map or in text.







IsCatalogInMostPopularTable: catalog: 29670, numindb: 50
Update: records affected: 1



GetName: 29670 COSMOS 2425 (716)

Hit Count: updated at: Thu, 19 Jul 2018 03:50:02 GMT